When you browse on this site, cookies collect data to enhance your experience and personalize the content and advertising you see.
Visit our Privacy Policy to learn more. By continuing to use the site, you agree to this use of cookies and data.
  • en France
  • Liste des pays
  • À 7 jours
  • Température de l'eau
  • Carte satellitaire
  • Carte météo
  • Widgets météo
  • user-avatar
    Se connecter

    Météo par heure à Salta

    Ce jour, 22 Janvier, Mardi

    Heure Température Précipitation Vent Pression Humidité
    00:00 +20°C° 0 mm 0 m/s 652 mmHg 83%
    01:00 +21°C° 0 mm 1 m/s 651 mmHg 83%
    02:00 +21°C° 0 mm 1 m/s 651 mmHg 84%
    03:00 +21°C° 0 mm 1 m/s 651 mmHg 83%
    04:00 +19°C° 0 mm 0 m/s 651 mmHg 82%
    05:00 +19°C° 0 mm 0 m/s 650 mmHg 81%
    06:00 +22°C° 0 mm 1 m/s 651 mmHg 76%
    07:00 +23°C° 0 mm 1 m/s 651 mmHg 71%
    08:00 +25°C° 0 mm 1 m/s 652 mmHg 67%
    09:00 +26°C° 0 mm 1 m/s 652 mmHg 61%
    10:00 +28°C° 0 mm 2 m/s 653 mmHg 55%
    11:00 +30°C° 0 mm 3 m/s 653 mmHg 49%
    12:00 +31°C° 0 mm 3 m/s 653 mmHg 46%
    13:00 +33°C° 0 mm 3 m/s 652 mmHg 44%
    14:00 +34°C° 0 mm 3 m/s 652 mmHg 42%
    15:00 +33°C° 0 mm 3 m/s 651 mmHg 43%
    16:00 +31°C° 0 mm 3 m/s 651 mmHg 45%
    17:00 +31°C° 0 mm 3 m/s 650 mmHg 46%
    18:00 +29°C° 0 mm 2 m/s 650 mmHg 53%
    19:00 +27°C° 0 mm 2 m/s 650 mmHg 60%
    20:00 +25°C° 0 mm 1 m/s 650 mmHg 67%
    21:00 +24°C° 0 mm 1 m/s 651 mmHg 68%
    22:00 +24°C° 0 mm 1 m/s 651 mmHg 69%
    23:00 +24°C° 0 mm 2 m/s 652 mmHg 70%

    Demain, 23 Janvier, Mercredi

    Heure Température Précipitation Vent Pression Humidité
    00:00 +24°C° 0 mm 2 m/s 651 mmHg 69%
    01:00 +24°C° 0 mm 1 m/s 651 mmHg 69%
    02:00 +23°C° 0 mm 1 m/s 651 mmHg 68%
    03:00 +23°C° 0 mm 1 m/s 651 mmHg 68%
    04:00 +23°C° 0 mm 1 m/s 651 mmHg 68%
    05:00 +23°C° 0 mm 1 m/s 651 mmHg 68%
    06:00 +24°C° 0 mm 1 m/s 652 mmHg 63%
    07:00 +26°C° 0 mm 1 m/s 653 mmHg 58%
    08:00 +28°C° 0 mm 1 m/s 654 mmHg 53%
    09:00 +30°C° 0 mm 1 m/s 655 mmHg 47%
    10:00 +32°C° 0 mm 2 m/s 655 mmHg 42%
    11:00 +35°C° 0 mm 2 m/s 656 mmHg 36%
    12:00 +35°C° 0 mm 2 m/s 655 mmHg 34%
    13:00 +36°C° 0 mm 3 m/s 655 mmHg 32%
    14:00 +37°C° 0 mm 3 m/s 654 mmHg 31%
    15:00 +36°C° 0 mm 3 m/s 654 mmHg 32%
    16:00 +36°C° 0 mm 3 m/s 653 mmHg 33%
    17:00 +35°C° 0 mm 3 m/s 652 mmHg 34%
    18:00 +31°C° 0 mm 2 m/s 652 mmHg 42%
    19:00 +29°C° 0 mm 2 m/s 652 mmHg 50%
    20:00 +26°C° 0 mm 1 m/s 651 mmHg 57%
    21:00 +25°C° 0 mm 1 m/s 652 mmHg 59%
    22:00 +25°C° 0 mm 1 m/s 652 mmHg 60%
    23:00 +24°C° 0 mm 2 m/s 653 mmHg 62%

    Après-demain, 24 Janvier, Jeudi

    Heure Température Précipitation Vent Pression Humidité
    00:00 +24°C° 0 mm 2 m/s 653 mmHg 61%
    01:00 +24°C° 0 mm 2 m/s 652 mmHg 60%
    02:00 +24°C° 0 mm 1 m/s 652 mmHg 59%
    03:00 +24°C° 0 mm 1 m/s 652 mmHg 59%
    04:00 +24°C° 0 mm 1 m/s 651 mmHg 59%
    05:00 +23°C° 0 mm 1 m/s 651 mmHg 59%
    06:00 +25°C° 0 mm 1 m/s 652 mmHg 56%
    07:00 +26°C° 0 mm 1 m/s 653 mmHg 53%
    08:00 +27°C° 0 mm 1 m/s 653 mmHg 50%
    09:00 +29°C° 0 mm 2 m/s 654 mmHg 47%
    10:00 +31°C° 0 mm 3 m/s 654 mmHg 43%
    11:00 +34°C° 0 mm 4 m/s 655 mmHg 39%
    12:00 +34°C° 0 mm 4 m/s 654 mmHg 37%
    13:00 +35°C° 0 mm 4 m/s 653 mmHg 35%
    14:00 +36°C° 0 mm 4 m/s 653 mmHg 33%
    15:00 +36°C° 0 mm 4 m/s 652 mmHg 34%
    16:00 +35°C° 0 mm 4 m/s 652 mmHg 35%
    17:00 +35°C° 0 mm 3 m/s 651 mmHg 36%
    18:00 +33°C° 0 mm 3 m/s 651 mmHg 41%
    19:00 +29°C° 0 mm 2 m/s 651 mmHg 47%
    20:00 +27°C° 0 mm 1 m/s 651 mmHg 52%
    21:00 +27°C° 0 mm 1 m/s 652 mmHg 53%
    22:00 +26°C° 0 mm 2 m/s 652 mmHg 54%
    23:00 +26°C° 0 mm 2 m/s 653 mmHg 54%

    25 Janvier, Vendredi

    Heure Température Précipitation Vent Pression Humidité
    00:00 +26°C° 0 mm 2 m/s 652 mmHg 53%
    01:00 +26°C° 0 mm 2 m/s 652 mmHg 52%
    02:00 +25°C° 0 mm 2 m/s 651 mmHg 51%
    03:00 +25°C° 0 mm 1 m/s 651 mmHg 52%
    04:00 +25°C° 0 mm 1 m/s 650 mmHg 52%
    05:00 +25°C° 0 mm 1 m/s 649 mmHg 52%
    06:00 +26°C° 0 mm 1 m/s 650 mmHg 50%
    07:00 +27°C° 0 mm 1 m/s 650 mmHg 48%
    08:00 +28°C° 0 mm 1 m/s 651 mmHg 46%
    09:00 +30°C° 0 mm 1 m/s 651 mmHg 42%
    10:00 +31°C° 0 mm 2 m/s 652 mmHg 38%
    11:00 +34°C° 0 mm 3 m/s 652 mmHg 34%
    12:00 +34°C° 0 mm 3 m/s 652 mmHg 33%
    13:00 +35°C° 0 mm 3 m/s 652 mmHg 32%
    14:00 +35°C° 0 mm 3 m/s 651 mmHg 31%
    15:00 +35°C° 0 mm 3 m/s 651 mmHg 31%
    16:00 +35°C° 0 mm 3 m/s 651 mmHg 31%
    17:00 +35°C° 0 mm 3 m/s 651 mmHg 30%
    18:00 +32°C° 0 mm 2 m/s 651 mmHg 36%
    19:00 +29°C° 0 mm 2 m/s 651 mmHg 41%
    20:00 +27°C° 0 mm 1 m/s 651 mmHg 47%
    21:00 +27°C° 0 mm 1 m/s 651 mmHg 47%
    22:00 +26°C° 0 mm 1 m/s 652 mmHg 47%
    23:00 +26°C° 0 mm 1 m/s 652 mmHg 47%

    26 Janvier, Samedi

    Heure Température Précipitation Vent Pression Humidité
    00:00 +26°C° 0 mm 1 m/s 652 mmHg 47%
    01:00 +25°C° 0 mm 1 m/s 651 mmHg 48%
    02:00 +25°C° 0 mm 1 m/s 651 mmHg 48%
    03:00 +25°C° 0 mm 1 m/s 650 mmHg 49%
    04:00 +24°C° 0 mm 1 m/s 650 mmHg 49%
    05:00 +24°C° 0 mm 1 m/s 649 mmHg 50%
    06:00 +24°C° 0 mm 0 m/s 650 mmHg 48%
    07:00 +25°C° 0 mm 0 m/s 651 mmHg 45%
    08:00 +26°C° 0 mm 0 m/s 652 mmHg 43%
    09:00 +30°C° 0 mm 1 m/s 653 mmHg 39%
    10:00 +32°C° 0 mm 2 m/s 653 mmHg 36%
    11:00 +34°C° 0 mm 2 m/s 654 mmHg 32%
    12:00 +35°C° 0 mm 3 m/s 653 mmHg 31%
    13:00 +36°C° 0 mm 3 m/s 653 mmHg 30%
    14:00 +36°C° 0 mm 3 m/s 652 mmHg 29%
    15:00 +36°C° 0 mm 3 m/s 652 mmHg 30%
    16:00 +36°C° 0 mm 2 m/s 652 mmHg 31%
    17:00 +36°C° 0 mm 2 m/s 651 mmHg 32%
    18:00 +31°C° 0.3 mm 2 m/s 651 mmHg 41%
    19:00 +28°C° 0.3 mm 2 m/s 651 mmHg 50%
    20:00 +25°C° 0.3 mm 2 m/s 651 mmHg 60%
    21:00 +25°C° 0.4 mm 2 m/s 651 mmHg 61%
    22:00 +24°C° 0.4 mm 2 m/s 651 mmHg 63%
    23:00 +24°C° 0.4 mm 2 m/s 652 mmHg 64%

    27 Janvier, Dimanche

    Heure Température Précipitation Vent Pression Humidité
    00:00 +23°C° 0.2 mm 2 m/s 651 mmHg 64%
    01:00 +23°C° 0.2 mm 1 m/s 651 mmHg 64%
    02:00 +23°C° 0.2 mm 1 m/s 651 mmHg 64%
    03:00 +23°C° 0 mm 1 m/s 651 mmHg 64%
    04:00 +23°C° 0 mm 1 m/s 650 mmHg 64%
    05:00 +23°C° 0 mm 1 m/s 650 mmHg 63%
    06:00 +24°C° 0 mm 1 m/s 651 mmHg 60%
    07:00 +26°C° 0 mm 1 m/s 652 mmHg 56%
    08:00 +27°C° 0 mm 1 m/s 652 mmHg 53%
    09:00 +29°C° 0 mm 1 m/s 653 mmHg 49%
    10:00 +30°C° 0 mm 1 m/s 653 mmHg 45%
    11:00 +32°C° 0 mm 2 m/s 653 mmHg 40%
    12:00 +34°C° 0 mm 2 m/s 653 mmHg 39%
    13:00 +34°C° 0 mm 2 m/s 653 mmHg 37%
    14:00 +35°C° 0 mm 3 m/s 652 mmHg 35%
    15:00 +35°C° 0.1 mm 3 m/s 652 mmHg 36%
    16:00 +34°C° 0.1 mm 2 m/s 652 mmHg 37%
    17:00 +34°C° 0.1 mm 2 m/s 651 mmHg 38%
    18:00 +31°C° 0.2 mm 2 m/s 651 mmHg 44%
    19:00 +29°C° 0.2 mm 2 m/s 651 mmHg 50%
    20:00 +27°C° 0.2 mm 1 m/s 651 mmHg 56%
    21:00 +26°C° 0.7 mm 1 m/s 651 mmHg 60%
    22:00 +25°C° 0.7 mm 2 m/s 652 mmHg 64%
    23:00 +24°C° 0.7 mm 2 m/s 652 mmHg 69%
    Voir plus